GFSGBSN_500_rhum_258.txt.gz
RH
5 5 11 15 12 8 15 51 50 55 78 93 92 96 95 94 95 93 87 93 82 69 79 64 48 49 53 49 46 42 44 40 38 30 25 24 23 22 20 19 17 13 12 11 10 9 9
8 5 7 14 16 11 10 15 56 44 52 69 90 92 93 96 96 95 95 95 93 94 82 78 86 84 77 72 70 68 65 60 56 54 49 48 45 44 42 40 40 39 34 23 19 18 16
12 6 6 13 20 19 10 9 37 54 44 58 78 91 90 94 93 95 95 97 94 95 91 89 86 84 74 62 59 59 62 59 56 52 49 46 46 44 41 43 48 52 49 48 43 39 37
15 12 7 11 16 19 18 11 13 58 52 44 64 74 90 96 95 96 92 92 96 93 96 95 88 87 66 56 48 58 55 52 48 48 49 50 48 45 44 44 50 58 58 54 45 36 35
17 16 10 8 17 21 21 16 12 29 46 44 33 49 62 92 96 93 90 87 90 96 83 98 86 59 30 27 32 33 35 23 29 34 36 39 41 41 44 50 52 55 53 51 50 48 49
17 19 14 11 11 22 21 23 21 13 14 31 38 27 38 71 91 93 95 90 84 82 94 80 62 64 37 26 14 8 18 23 25 26 29 36 46 54 56 52 49 49 48 49 49 48 49
16 20 18 14 12 17 21 25 25 25 24 29 24 11 12 37 66 88 90 92 68 70 62 57 67 58 16 9 15 12 10 18 26 26 39 50 52 51 47 45 45 45 45 42 37 35 37
17 19 22 17 16 15 20 24 26 31 28 36 47 30 14 28 69 69 92 89 64 92 83 48 46 15 10 7 7 14 18 20 22 27 41 54 52 46 44 45 48 50 44 37 27 22 10
18 18 23 20 19 20 21 23 32 31 32 70 77 44 20 33 45 95 91 91 99 76 18 34 20 6 6 9 18 26 23 22 34 48 54 50 46 44 41 34 20 12 4 2 2 2 1
21 21 22 25 26 20 21 30 29 35 37 48 74 30 96 94 86 75 70 84 42 10 8 6 8 14 19 26 27 26 22 25 34 52 53 45 38 29 15 5 2 2 2 1 1 2 2
25 21 27 28 27 22 25 34 28 32 44 91 84 35 33 63 38 57 45 20 6 7 7 14 16 18 22 22 22 24 33 46 54 56 49 32 15 4 2 2 2 1 1 1 2 2 3
24 28 25 29 26 28 28 32 29 36 27 47 40 11 10 33 42 25 16 6 11 10 7 15 20 22 26 28 24 19 39 54 59 53 31 7 3 2 2 1 1 1 1 2 3 5 12
26 32 27 30 33 44 35 30 38 37 34 24 16 9 50 64 9 8 6 8 13 8 13 19 27 30 34 29 21 24 46 60 59 31 4 2 2 2 2 2 2 2 2 3 7 19 33
31 30 32 33 37 56 52 31 35 42 33 20 22 17 56 10 6 7 9 8 10 10 9 12 22 48 43 28 28 44 55 58 31 3 2 2 2 2 2 2 2 3 4 5 13 24 38
30 27 32 36 44 63 62 82 44 40 30 24 21 14 12 8 9 9 12 16 14 12 13 16 34 45 36 25 30 58 61 40 3 2 2 2 2 2 2 2 3 3 5 10 14 30 52
41 43 33 39 59 69 73 99 46 42 35 24 20 11 9 11 13 17 22 22 18 15 16 28 46 34 30 31 56 65 50 5 3 2 2 2 2 3 3 3 3 4 8 10 14 26 40
29 32 39 44 60 69 67 55 77 83 45 19 17 15 16 18 31 29 30 22 27 26 36 56 48 32 41 59 69 68 13 3 2 2 3 3 3 4 4 3 3 6 9 11 16 22 40
27 51 36 51 60 90 75 57 86 53 25 61 94 56 34 32 35 52 32 53 33 21 50 48 32 48 61 68 60 14 3 3 3 3 3 3 4 4 4 4 4 6 9 14 16 22 25
26 33 39 51 66 70 83 58 42 55 72 88 85 48 52 55 49 32 91 59 28 26 43 48 55 60 72 62 11 3 3 3 3 3 3 4 5 5 5 5 5 6 9 14 18 19 14
25 30 40 50 54 57 62 57 40 100 100 78 64 64 56 23 33 34 36 32 31 47 44 53 57 70 78 20 3 4 3 3 4 4 4 5 6 6 6 6 6 6 8 14 18 23 25
64 34 46 61 54 54 60 52 84 38 53 94 71 68 60 42 36 36 33 35 52 51 43 56 70 71 43 4 4 4 3 4 4 4 5 6 6 6 7 7 7 7 8 13 16 22 27
27 43 46 46 48 60 62 48 92 99 100 72 32 36 95 78 42 36 28 54 66 64 56 77 75 62 11 9 4 4 3 4 4 5 6 7 7 8 8 9 8 8 8 9 11 15 23
29 48 46 47 57 64 57 100 99 82 81 49 76 100 98 42 32 42 36 71 91 70 52 60 85 49 16 5 4 4 4 4 5 6 7 8 8 9 10 11 10 10 9 9 10 10 14
40 49 44 52 63 68 98 100 81 100 96 90 67 99 84 53 63 72 84 100 84 59 45 69 84 55 26 4 5 4 4 5 6 7 9 10 10 11 12 13 13 11 10 10 10 9 10
48 48 51 60 70 69 58 48 28 69 97 100 92 91 53 91 56 68 86 63 48 47 61 83 91 72 15 5 5 4 5 6 7 9 10 12 12 12 14 15 16 15 13 12 11 11 11
50 52 64 71 78 67 56 38 37 79 98 100 62 40 59 84 79 71 52 46 45 71 84 100 98 72 6 6 5 5 6 7 9 11 12 13 13 14 15 17 17 18 17 15 13 12 11
54 74 78 82 76 66 56 45 47 99 94 52 44 43 49 52 55 46 46 50 48 78 80 97 99 25 5 7 6 6 8 9 10 13 14 16 16 16 18 19 20 20 20 19 16 15 12
73 83 80 85 74 65 58 49 49 49 54 47 90 83 54 36 37 34 57 61 88 94 96 100 39 6 7 7 7 8 9 10 12 14 15 17 19 21 22 22 22 24 22 22 21 17 15
86 79 80 80 73 65 59 52 53 52 76 100 100 100 51 48 37 65 68 82 90 99 93 54 9 7 9 8 9 9 11 11 14 16 17 20 21 23 23 24 25 27 27 26 24 22 18

GFSGBSN_500_rhum_264.txt.gz
RH
14 14 9 7 14 19 13 11 12 25 70 97 92 96 94 97 97 83 75 74 63 42 57 44 38 28 23 17 14 12 11 12 16 22 27 40 43 42 39 38 37 37 39 40 39 39 40
14 15 14 9 7 16 22 15 10 10 15 96 91 85 88 89 96 98 97 94 98 84 80 79 76 63 54 47 44 40 45 44 44 47 54 54 48 43 39 35 34 32 33 35 34 32 33
12 16 18 15 9 9 17 20 14 10 9 21 98 86 85 84 96 95 97 97 98 94 94 92 84 84 86 80 70 64 68 66 62 61 55 44 37 31 28 28 28 29 30 31 33 36 38
13 15 18 19 16 11 9 21 23 13 9 10 26 63 56 79 98 92 97 95 96 97 97 95 87 86 82 85 82 79 73 68 50 39 30 23 23 24 28 27 21 20 23 30 37 39 43
14 15 18 20 20 17 10 15 22 24 12 10 8 22 81 69 96 89 93 96 94 95 91 93 96 96 91 87 70 63 54 42 34 29 18 12 12 16 17 17 21 33 35 38 35 35 34
18 14 18 20 20 20 16 13 14 24 22 12 10 6 38 75 84 92 89 93 96 97 90 95 93 88 81 73 58 50 40 25 17 15 13 14 15 14 14 20 27 33 37 35 31 20 10
18 16 16 19 21 22 21 16 14 21 25 20 11 24 25 67 62 73 83 93 90 93 89 93 90 73 60 62 53 55 33 15 11 11 12 15 14 16 22 33 39 37 32 19 7 4 2
19 18 16 20 21 23 25 22 20 21 25 24 16 9 10 14 85 69 69 89 91 93 93 77 79 67 68 72 50 36 26 10 10 12 14 14 14 23 27 36 35 21 8 4 2 1 1
17 17 18 19 21 24 24 27 48 68 28 26 21 12 11 10 13 37 67 83 76 76 85 60 77 70 81 79 38 15 12 15 16 15 14 13 14 20 35 30 9 3 2 2 1 1 1
14 15 17 18 22 23 27 31 31 48 26 27 24 20 14 10 10 29 39 29 34 46 60 54 60 67 76 72 13 11 15 16 16 17 14 13 22 34 18 4 2 2 2 2 1 1 2
9 13 15 17 21 23 32 99 43 52 34 99 34 22 19 12 25 21 24 26 25 22 60 50 57 76 75 60 12 15 18 17 20 19 17 23 30 20 3 2 2 2 2 1 1 2 2
6 11 13 16 18 22 26 29 36 55 100 99 48 27 23 16 16 31 31 35 37 53 53 61 70 64 27 12 14 15 22 24 24 22 24 30 18 5 2 2 2 2 2 2 2 2 2
4 8 10 15 18 23 39 100 39 39 77 79 42 35 30 32 47 36 40 56 46 39 68 60 52 23 9 10 13 16 20 23 22 24 32 25 4 2 2 2 2 2 2 2 2 2 3
2 7 8 12 17 23 30 41 66 98 69 70 45 39 49 74 36 41 80 63 51 69 61 29 17 12 12 11 14 19 23 22 23 36 35 4 2 2 3 2 2 2 2 3 3 3 4
2 5 7 11 17 29 26 34 100 79 52 86 94 77 68 79 32 40 70 49 62 37 38 16 11 11 10 12 18 22 25 26 33 39 5 2 2 3 3 3 3 3 3 3 3 3 4
3 6 6 10 44 24 26 35 38 98 98 99 92 97 80 41 40 35 47 42 22 35 16 11 11 13 17 18 21 23 26 34 40 23 2 2 3 3 3 4 3 3 4 4 4 4 5
4 6 7 10 15 22 32 37 67 99 98 86 91 71 99 64 76 60 48 20 32 22 10 12 14 18 19 22 25 28 35 41 44 7 2 3 3 4 4 4 4 4 4 5 5 4 5
99 20 21 100 25 24 35 44 46 80 100 64 54 51 49 43 32 61 59 29 38 13 14 16 21 22 22 19 28 31 50 50 20 3 3 3 4 4 5 5 5 5 6 6 6 6 6
100 88 19 54 97 90 67 40 81 99 89 68 48 84 74 36 26 46 33 34 17 12 17 20 24 24 20 27 37 53 53 28 4 3 3 4 5 5 6 6 6 6 7 7 8 8 8
100 65 100 100 79 100 55 40 62 64 96 58 88 96 97 80 81 46 28 27 13 16 21 25 28 23 19 25 45 58 44 7 3 3 3 4 5 6 7 7 8 8 8 9 9 10 10
81 100 89 100 100 90 38 38 99 100 76 46 84 84 38 11 17 26 43 15 13 20 30 35 24 16 20 32 52 59 18 4 3 3 4 5 5 7 7 8 10 10 10 10 11 11 11
100 38 91 89 51 25 39 69 98 86 58 95 79 62 21 20 30 45 27 15 18 36 45 34 14 24 35 42 60 38 4 4 3 4 4 5 6 7 7 10 12 13 13 14 14 14 13
96 99 94 100 100 79 48 57 100 94 99 68 60 40 30 30 45 36 17 20 45 46 33 16 29 37 42 61 49 12 5 5 3 4 4 6 7 8 8 10 12 14 15 16 18 17 18
85 100 100 100 96 100 46 59 83 93 54 48 27 38 37 46 52 22 23 51 50 35 18 20 35 41 59 60 39 20 15 5 4 4 5 7 8 8 8 9 11 14 17 18 18 19 20
100 100 99 100 100 100 64 70 75 66 56 42 43 59 47 58 60 47 48 50 38 16 14 22 41 56 58 53 56 28 11 4 4 4 6 8 8 9 9 10 12 13 16 19 20 21 21
82 100 70 82 99 81 57 69 66 61 53 53 67 58 48 95 68 100 65 45 20 15 18 33 49 75 63 46 66 42 28 6 4 5 7 8 10 11 12 12 13 14 16 18 22 24 23
100 97 99 100 100 85 73 99 100 100 100 100 80 50 91 100 90 71 56 45 21 18 34 54 55 53 49 54 76 52 25 5 4 5 8 9 10 12 14 15 16 18 20 21 23 25 26
100 100 100 100 100 73 67 58 99 100 100 100 83 50 84 98 87 70 67 73 36 39 58 63 53 40 53 72 77 73 10 5 5 6 8 10 11 13 15 18 21 24 26 28 29 31 30
94 98 96 100 81 78 94 99 97 95 100 98 86 70 100 100 100 96 84 65 29 27 35 44 38 39 69 65 85 70 8 6 6 8 9 10 13 14 17 20 23 26 28 27 26 26 31

GFSGBSN_500_rhum_267.txt.gz
RH
14 15 14 12 8 17 18 18 38 72 80 94 91 93 81 78 77 82 59 40 52 43 26 23 17 16 14 13 14 13 12 10 10 12 13 21 30 38 46 45 43 39 34 30 28 28 28
18 15 15 15 13 9 12 19 16 17 23 67 90 97 88 96 97 96 87 74 76 81 55 42 33 32 28 26 29 26 23 23 30 37 42 50 54 54 48 41 33 29 27 27 22 19 22
23 20 17 16 18 13 11 20 20 17 13 24 53 80 77 85 96 95 95 91 95 97 83 85 86 74 64 56 60 56 56 58 59 61 62 58 49 36 28 25 22 24 23 17 20 22 26
14 23 21 17 18 19 13 18 24 20 15 8 18 44 65 100 96 95 96 82 97 95 97 93 93 76 82 86 84 85 72 68 71 65 44 33 26 20 18 16 15 13 13 14 17 22 23
6 16 24 20 18 21 20 13 22 26 18 11 10 10 38 100 87 93 79 88 96 97 96 96 96 93 91 94 85 73 64 60 56 46 34 27 22 17 15 13 12 14 24 26 21 25 20
5 8 19 23 20 21 23 17 21 30 24 20 11 9 10 95 97 85 73 84 92 96 96 97 96 96 96 97 88 72 52 47 41 25 15 13 14 12 12 12 18 21 30 30 15 11 6
7 5 8 23 22 20 23 24 22 25 30 22 19 11 10 32 89 91 89 73 94 90 94 98 93 95 83 80 68 65 52 36 28 17 11 11 12 12 10 11 20 30 19 9 3 2 2
10 7 4 14 24 20 23 26 25 45 30 71 22 18 9 9 22 44 90 82 91 88 94 89 96 70 77 76 66 64 41 24 17 11 12 13 13 11 11 13 25 19 7 3 2 1 1
9 4 3 8 23 22 22 25 28 88 42 26 26 24 11 11 12 19 93 97 97 71 90 93 83 57 70 72 68 75 23 10 12 12 14 14 13 14 15 22 19 9 3 2 1 1 2
5 1 2 6 19 21 22 26 28 34 37 41 29 28 21 11 12 25 71 95 99 90 82 94 70 59 53 58 66 73 32 12 13 15 16 16 17 17 22 21 10 2 2 2 2 2 2
2 1 1 5 16 20 22 26 28 86 42 54 34 30 25 17 92 63 91 69 94 88 94 69 56 51 41 47 62 72 30 13 16 18 18 20 18 22 20 9 2 2 2 2 2 2 2
4 2 2 6 14 19 21 26 28 33 39 42 26 30 27 18 13 15 24 36 48 71 65 50 42 40 39 63 56 17 12 13 17 19 18 20 22 20 8 2 2 2 2 2 2 2 2
4 3 2 5 14 77 21 26 30 33 67 92 72 39 28 20 16 21 40 22 41 52 35 33 36 37 48 65 15 10 11 14 17 18 21 21 24 9 2 3 2 2 2 2 2 3 3
4 3 6 5 25 25 22 26 30 39 95 48 99 48 29 24 19 16 17 22 24 29 40 42 39 48 46 32 10 11 13 17 19 22 24 25 8 4 3 3 3 3 3 3 3 3 4
6 4 4 5 14 21 24 27 26 88 88 100 99 62 36 40 20 17 16 16 23 37 44 41 71 52 22 12 11 13 18 20 22 29 34 15 3 3 3 3 3 3 4 4 4 4 4
9 6 8 5 66 97 26 29 78 81 96 100 52 39 100 58 31 24 20 27 32 59 59 66 51 32 13 11 14 18 18 19 24 32 32 8 3 3 3 4 4 4 4 5 5 5 5
16 4 26 5 63 28 26 29 35 80 96 100 93 98 98 100 53 29 18 31 42 66 60 32 26 14 12 14 18 20 18 21 29 40 23 3 3 3 4 4 4 4 5 6 6 6 7
34 3 4 35 80 40 33 45 100 98 100 100 98 98 96 51 28 18 40 25 45 56 32 26 15 11 13 20 20 15 18 30 44 39 5 3 3 4 4 5 5 5 6 7 7 8 8
52 3 3 8 100 40 30 32 56 90 50 54 98 90 57 30 19 14 51 19 42 46 27 25 10 14 19 21 16 17 31 44 47 18 3 3 3 4 5 5 6 6 7 8 9 10 10
48 3 7 7 96 29 33 63 99 88 95 84 81 66 98 72 36 37 20 28 44 24 33 15 14 18 23 19 12 19 37 48 35 4 3 3 4 5 5 5 6 8 10 10 11 12 12
43 6 6 93 84 28 68 100 99 100 100 98 98 43 44 71 44 25 49 70 46 30 25 13 17 23 23 14 13 29 42 51 16 3 3 4 4 5 6 5 7 9 12 13 12 13 14
42 10 2 63 98 89 38 42 95 99 98 100 98 88 83 52 35 25 43 66 49 31 14 16 23 28 18 9 14 28 43 42 6 3 3 4 4 6 6 6 8 10 12 14 14 14 15
38 5 6 77 100 100 42 38 38 99 97 95 100 85 60 25 23 28 28 64 29 22 15 20 25 24 10 23 30 36 49 14 5 4 3 4 5 6 6 6 8 10 12 14 15 15 16
34 4 43 75 48 91 96 34 41 81 78 98 95 71 36 25 51 55 82 38 30 16 16 22 38 15 26 28 37 42 39 10 7 4 3 4 5 7 7 7 8 10 11 13 15 17 17
28 8 10 95 100 100 86 34 40 99 98 99 98 49 30 60 98 98 50 47 36 14 24 45 25 17 19 35 43 41 31 25 14 4 4 4 6 7 8 8 10 12 13 14 16 19 20
32 61 40 100 100 87 39 36 83 100 100 100 59 50 74 100 85 56 44 32 17 16 24 33 20 15 23 38 45 41 45 30 11 4 4 5 7 8 9 10 11 14 17 19 21 24 25
67 68 63 29 99 100 92 44 45 82 96 98 56 60 100 96 76 52 44 31 16 25 44 26 16 18 28 39 53 42 45 44 29 6 4 5 7 9 10 12 14 16 20 23 24 23 23
65 94 100 98 100 100 56 39 64 100 99 100 76 65 99 98 68 63 48 26 36 46 37 21 14 24 42 40 38 36 41 59 37 5 4 6 8 10 11 13 16 20 22 23 24 23 22
59 89 100 100 100 100 93 42 67 94 99 83 80 100 98 63 64 47 44 60 62 41 30 23 26 32 37 32 34 50 67 70 25 5 5 7 8 9 12 14 18 21 23 23 23 22 22

GFSGBSN_500_rhum_270.txt.gz
RH
14 16 17 15 15 11 16 18 29 64 82 95 96 91 94 93 82 69 72 74 65 56 48 33 28 24 19 17 15 14 12 11 10 9 10 11 13 24 29 38 40 46 39 33 28 27 23
11 13 20 19 17 15 14 16 20 16 56 92 98 86 90 96 94 96 70 62 81 60 44 44 36 34 30 24 21 21 21 22 24 28 33 36 40 45 45 44 37 29 23 21 17 14 16
12 12 14 23 21 17 17 15 14 22 17 76 100 93 86 89 96 97 97 93 95 86 84 76 65 62 62 49 49 48 52 54 54 52 48 51 51 49 38 29 22 19 15 15 14 16 22
8 11 13 15 25 22 18 20 14 14 24 16 89 95 84 95 88 96 94 95 98 96 99 100 92 79 77 73 65 63 72 70 64 57 54 56 45 36 29 22 16 13 12 10 9 14 14
6 8 10 13 17 26 22 20 20 14 29 24 18 43 28 67 89 91 97 92 94 93 96 92 99 90 86 78 80 88 81 71 62 57 54 43 28 22 17 12 11 10 10 8 9 16 14
3 4 6 8 12 21 26 20 23 22 20 25 22 16 13 24 43 39 77 96 90 90 97 98 98 96 98 96 89 93 88 65 53 46 40 30 21 16 11 10 11 11 20 19 12 9 4
9 5 4 6 9 13 24 25 22 24 41 32 28 23 14 14 13 16 96 72 89 82 94 96 97 97 96 90 93 97 74 59 43 34 24 14 13 12 11 11 12 20 20 10 4 3 2
10 8 6 5 6 8 14 26 23 24 25 27 99 39 17 12 12 13 49 79 93 77 91 94 96 83 88 82 81 73 64 54 26 19 11 11 12 12 12 12 16 20 10 4 3 2 2
17 12 11 10 8 5 8 20 26 24 26 28 37 94 32 13 13 11 19 96 92 62 88 94 82 88 61 71 70 66 66 65 13 10 11 12 13 13 11 14 17 13 6 3 2 2 2
21 20 16 11 9 8 4 11 26 23 32 92 38 77 60 21 16 11 14 99 100 80 82 98 66 86 59 57 59 56 59 70 40 12 13 14 15 13 14 16 14 7 4 2 2 2 2
28 23 18 16 13 10 7 4 20 24 26 29 34 38 36 30 28 18 68 42 44 53 64 71 89 85 64 47 49 46 61 60 14 11 13 16 14 15 18 14 7 4 2 2 2 2 2
25 21 18 16 13 12 10 6 8 23 25 92 34 33 31 82 22 43 39 61 48 55 77 87 81 64 54 44 37 44 56 17 10 12 15 16 17 20 15 8 5 2 2 2 2 2 2
24 20 17 15 14 13 10 9 5 22 26 29 70 100 44 75 29 22 44 57 43 30 60 51 55 52 41 31 38 62 22 9 12 14 17 18 20 16 11 6 3 2 2 2 2 2 3
27 29 22 23 17 10 10 7 5 23 26 36 98 99 59 34 29 71 28 34 50 24 33 32 37 37 31 37 48 57 11 11 14 17 16 15 20 14 9 4 3 2 3 3 3 3 3
32 29 32 34 22 7 7 69 9 24 30 40 96 75 85 92 33 34 38 16 18 12 20 26 30 27 39 46 44 13 11 13 17 16 16 25 25 11 4 3 3 3 3 4 4 4 5
34 35 44 44 10 2 45 96 96 28 46 95 52 60 91 92 42 24 21 13 13 19 23 27 29 37 49 51 17 11 12 18 18 19 25 28 18 7 3 3 4 4 4 5 5 6 6
47 51 54 42 2 2 87 82 71 35 31 59 97 100 99 53 43 35 14 12 17 17 19 36 47 52 64 33 11 11 18 20 16 15 28 36 12 5 3 4 4 4 5 6 7 7 8
57 63 64 21 2 3 80 100 96 42 38 99 98 84 31 86 76 27 14 14 19 17 22 36 63 60 30 14 12 16 19 15 13 27 39 29 4 2 3 4 4 5 6 7 8 9 10
56 73 74 11 2 61 100 54 38 50 52 64 66 77 100 98 68 21 15 22 15 22 32 64 61 26 16 11 14 19 16 13 25 35 42 15 3 3 4 4 4 6 7 8 9 10 11
55 81 79 6 4 74 100 100 46 61 51 100 99 99 99 96 61 27 16 16 18 25 42 60 48 22 12 13 19 19 12 17 28 43 28 4 3 3 4 5 5 6 8 10 10 10 12
64 91 81 4 26 99 100 82 47 71 100 100 98 94 69 61 23 45 36 16 17 26 20 37 32 22 12 17 21 12 11 26 32 43 20 3 3 3 4 5 5 7 9 10 11 12 13
61 85 72 4 10 96 100 76 63 100 99 100 100 99 97 67 39 62 48 13 31 28 29 45 29 16 15 21 16 9 16 19 41 36 8 3 3 4 5 6 5 7 8 9 11 12 14
64 77 61 4 30 100 100 94 64 98 98 98 95 92 100 60 82 81 20 18 49 30 48 41 30 14 18 22 11 12 19 32 41 24 5 4 3 4 5 6 6 7 8 9 11 13 14
73 80 53 4 65 56 80 80 89 100 97 93 92 98 98 95 77 46 30 36 42 59 50 44 16 14 19 21 13 24 28 30 37 24 8 4 3 4 5 7 7 8 10 11 13 16 19
76 85 57 3 31 100 100 96 100 100 98 92 100 99 100 80 96 100 70 61 95 60 47 24 15 18 33 11 14 23 28 31 30 27 22 7 3 4 6 7 8 11 12 14 18 21 21
81 86 56 5 98 100 64 99 100 96 99 84 84 100 94 79 78 97 90 88 72 74 41 18 13 26 28 10 12 16 32 37 34 34 31 8 3 4 6 7 9 11 13 16 20 23 20
97 79 49 6 90 65 53 100 100 100 93 76 78 67 64 75 92 97 82 52 52 69 26 18 17 28 18 11 12 21 28 34 34 37 37 12 3 5 7 8 9 11 16 18 20 18 18
92 82 42 14 40 28 68 100 100 100 100 91 99 90 97 99 99 74 97 42 71 41 34 21 22 24 13 14 17 24 28 29 31 40 46 27 4 4 7 8 11 13 18 18 18 17 16
81 81 34 66 95 32 51 78 100 100 98 100 100 99 100 99 59 97 100 100 70 66 34 34 40 28 26 16 22 29 17 30 41 51 51 24 4 5 8 9 11 14 18 19 18 16 17